User: anonymous   Login
Location: Unspecified
(0.0000°N, 0.0000°E)
Time: 05:00:34
(UTC+00:00)
Language:

CAS-6 - Orbit

View from above orbital plane
View from above orbital plane
View from above satellite
View from above satellite

Ground track
Ground track

The orbit data is extracted from the following two-line orbital elements,

1 44881U 19093C   24057.81873461  .00001527  00000-0  19274-3 0  9994
2 44881  97.8367 136.7518 0013820 331.8591  28.1875 14.83313628226530
Epoch (UTC): 26 February 2024 19:38:58
Eccentricity: 0.0013820
inclination: 97.8367°
perigee height: 609 km
apogee height: 628 km
right ascension of ascending node: 136.7518°
argument of perigee: 331.8591°
revolutions per day: 14.83313628
mean anomaly at epoch: 28.1875°
orbit number at epoch: 22653

The dashed part of the orbit path shows where the satellite is in the earth's shadow,  

DLR